This demonstration page uses our WeatherBlox Daily Observations layout. Learn more.

Hourly Observations for July 1, 2017

Temp ( °F °C ) Dew Point ( °F °C ) Humidity (%) Winds ( mph kmh ) Pressure ( in mb ) Visibility ( mi km ) Precip ( " mm )
12:53 am 00:53 Cloudy 70 21.1 70 21.1 100 100 Calm 29.87 1012 10 16.0934 0.01 0.254
1:53 am 01:53 Mostly Cloudy with Light Rain 70 21.1 70 21.1 100 100 Calm 29.86 1011 10 16.0934 0 0.0254
2:07 am 02:07 Mostly Cloudy 70 21.1 70 21.1 100 100 Calm 29.88 1012 10 16.0934 0 0.0254
2:29 am 02:29 Cloudy 70 21.1 70 21.1 100 100 WSW 5 7 29.88 1012 10 16.0934 0 0.0254
2:53 am 02:53 Cloudy 70 21.1 70 21.1 100 100 WSW 5 7 29.88 1012 10 16.0934 0 0.0254
3:04 am 03:04 Cloudy 70 21.1 70 21.1 100 100 W 7 11 29.91 1013 10 16.0934 0 0
3:28 am 03:28 Mostly Cloudy 70 21.1 70 21.1 100 100 W 7 11 29.91 1013 10 16.0934 0 0
3:53 am 03:53 Mostly Cloudy 70 21.1 69 20.6 97 97 W 6 9 29.88 1012 10 16.0934 0 0
4:53 am 04:53 Cloudy 70 21.1 69 20.6 97 97 W 6 9 29.89 1012 10 16.0934 0 0
5:53 am 05:53 Cloudy 69 20.6 69 20.6 100 100 W 6 9 29.91 1013 9 14.48406 0 0
6:07 am 06:07 Cloudy 69 20.6 69 20.6 100 100 WSW 7 11 29.94 1014 9 14.48406 0 0
6:20 am 06:20 Cloudy 70 21.1 69 20.6 97 97 WSW 3 6 29.94 1014 10 16.0934 0 0
6:53 am 06:53 Cloudy 70 21.1 69 20.6 97 97 VRB 6 9 29.93 1013 10 16.0934 0 0
7:53 am 07:53 Cloudy 71 21.7 70 21.1 96 96 VRB 3 6 29.95 1014 10 16.0934 0 0
8:22 am 08:22 Cloudy 71 21.7 70 21.1 96 96 WSW 3 6 29.97 1015 10 16.0934 0 0
8:29 am 08:29 Cloudy 71 21.7 70 21.1 96 96 WSW 3 6 29.97 1015 10 16.0934 0 0
8:53 am 08:53 Cloudy 72 22.2 70 21.1 94 94 SW 5 7 29.96 1015 10 16.0934 0 0
9:17 am 09:17 Cloudy 73 22.8 70 21.1 90 90 WSW 7 11 29.97 1015 10 16.0934 0 0
9:25 am 09:25 Cloudy 73 22.8 71 21.7 94 94 WSW 7 11 29.97 1015 10 16.0934 0 0
9:35 am 09:35 Cloudy 74 23.3 71 21.7 91 91 WSW 6 9 29.97 1015 10 16.0934 0 0
9:50 am 09:50 Cloudy 73 23 72 22 94 94 WSW 8 13 30 1016 10 16.0934 0 0
9:53 am 09:53 Cloudy 74 23.3 71 21.7 91 91 W 8 13 29.98 1015 10 16.0934 0 0
10:18 am 10:18 Cloudy 75 23.9 71 21.7 88 88 WSW 7 11 30 1016 10 16.0934 0 0
10:53 am 10:53 Mostly Cloudy 75 23.9 71 21.7 88 88 W 5 7 29.98 1015 10 16.0934 0 0
11:53 am 11:53 Mostly Cloudy 77 25 70 21.1 79 79 W 7 11 29.99 1016 10 16.0934 0 0
12:10 pm 12:10 Mostly Cloudy 77 25 70 21.1 79 79 WSW 6 9 30 1016 10 16.0934 0 0
12:53 pm 12:53 Sunny 77 25 71 21.7 82 82 WSW 7 11 29.99 1016 10 16.0934 0 0
1:53 pm 13:53 Sunny 79 26.1 70 21.1 74 74 SW 6 9 29.99 1016 10 16.0934 0 0
2:53 pm 14:53 Partly Cloudy 81 27.2 70 21.1 69 69 VRB 5 7 29.99 1016 10 16.0934 0 0
3:53 pm 15:53 Sunny 83 28.3 69 20.6 63 63 W 9 15 29.98 1015 10 16.0934 0 0
4:53 pm 16:53 Mostly Sunny 83 28.3 68 20 61 61 W 9 15 29.96 1015 10 16.0934 0 0
5:53 pm 17:53 Sunny 82 27.8 69 20.6 65 65 W 7 11 29.96 1015 10 16.0934 0 0
6:53 pm 18:53 Sunny 83 28.3 68 20 61 61 WSW 6 9 29.96 1015 10 16.0934 0 0
7:53 pm 19:53 Sunny 80 26.7 66 18.9 62 62 W 5 7 29.98 1015 10 16.0934 0 0
8:53 pm 20:53 Sunny 77 25 66 18.9 69 69 W 5 7 29.99 1016 10 16.0934 0 0
9:53 pm 21:53 Clear 70 21.1 67 19.4 90 90 Calm 30 1016 10 16.0934 0 0
10:53 pm 22:53 Clear 69 20.6 67 19.4 93 93 Calm 30.03 1017 10 16.0934 0 0
11:53 pm 23:53 Partly Cloudy with Mist and Fog 68 20 67 19.4 96 96 Calm 30.04 1017 5 8.0467 0 0

Powered by AerisWeather